Location: Dąbrówka
(52.2799°N, 15.8070°E)
Time: 17:40:02
(UTC+01:00)

ISS - Pass Details

Date: 26 January 2019
Orbit: 403 x 411 km, 51.6° (Epoch: 20 February)

Event Time Altitude Azimuth Distance (km) Brightness Sun altitude
Rises 19:12:57 0° 249° (WSW) 2,334 1.2 -24.3°
Reaches altitude 10° 19:15:03 10° 246° (WSW) 1,476 -0.1 -24.6°
Enters shadow 19:16:46 28° 236° (WSW) 811 -1.9 -24.9°
